User: anonymous   Login
Location: Unspecified
(0.0000°N, 0.0000°E)
Time: 03:19:43
(UTC+00:00)
Language:

ALISIO-1 - Orbit

View from above orbital plane
View from above orbital plane
View from above satellite
View from above satellite

Ground track
Ground track

The orbit is defined by the following mean orbital elements,

1 58562U          26145.62842303 +.00000000 +00000-0 +19100-3 0 00009
2 58562  97.5374 219.1050 0007232  46.5830 313.6004 15.16875873    09
Epoch (UTC): 25 May 2026 15:04:55
Eccentricity: 0.0007232
inclination: 97.5374°
perigee height: 510 km
apogee height: 520 km
right ascension of ascending node: 219.1050°
argument of perigee: 46.5830°
revolutions per day: 15.16875873
mean anomaly at epoch: 313.6004°

The dashed part of the orbit path shows where the satellite is in the earth's shadow,  

DLR